• Join FlightAware (Why Join?)
  • Login
  • US Flag 
01:37AM EST


 

Airport Tracker/Info


-or-


 

Live Flight TrackerFlight Track Log ✈ SWA2130 ✈ 10-May-2013 ✈ KSFO - KLAX

Flight Track Log - Related Links

Times and Time Zones

All times are in EDT time to prevent confusion due to time zone crossing. See the SWA2130 flight status page for this flight to view local times or setup timezone preferences in your user account.

Time Position Orientation Groundspeed Altitude Reporting Facility
EDT Latitude Longitude Course Direction KTS MPH feet Rate Location/Type
07:00PM 37.6333 -122.3667 357° North 156 180 800  Level Northern Cal TRACON
07:01PM 37.6650 -122.3689 357° North 186 214 2,200 2,460 Climbing Oakland Center
07:02PM 37.6781 -122.4233 287° West 243 280 5,300 3,660 Climbing Oakland Center
07:03PM 37.5967 -122.4253 181° South 279 321 9,800 3,600 Climbing Oakland Center
07:04PM 37.5178 -122.3803 156° South 305 351 12,800 3,120 Climbing Oakland Center
07:05PM 37.4386 -122.3083 144° Southeast 345 397 16,200 3,060 Climbing Oakland Center
07:06PM 37.3708 -122.2128 132° Southeast 364 419 19,100 2,820 Climbing Oakland Center
07:07PM 37.2956 -122.1139 134° Southeast 384 442 22,000 2,580 Climbing Oakland Center
07:08PM 37.2164 -122.0092 133° Southeast 407 468 24,500 2,160 Climbing Oakland Center
07:09PM 37.1336 -121.8983 133° Southeast 430 495 26,500 1,800 Climbing Oakland Center
07:10PM 37.0444 -121.7817 134° Southeast 458 527 28,300 2,040 Climbing Oakland Center
07:11PM 36.9347 -121.6375 134° Southeast 478 550 30,800 2,220 Climbing Oakland Center
07:12PM 36.8411 -121.5136 133° Southeast 489 563 32,900 2,040 Climbing Oakland Center
07:13PM 36.7553 -121.4014 134° Southeast 481 554 35,000 1,620 Climbing Oakland Center
07:14PM 36.6625 -121.2811 134° Southeast 479 551 36,300 1,260 Climbing Oakland Center
07:15PM 36.5692 -121.1567 133° Southeast 489 563 37,600 1,320 Climbing Oakland Center
07:16PM 36.4744 -121.0344 134° Southeast 492 566 39,000 660 Climbing Oakland Center
07:17PM 36.3633 -120.8906 134° Southeast 482 555 39,000  Level Oakland Center
07:18PM 36.2711 -120.7711 134° Southeast 478 550 39,000  Level Oakland Center
07:19PM 36.1783 -120.6522 134° Southeast 479 551 39,000  Level Oakland Center
07:20PM 36.0853 -120.5339 134° Southeast 478 550 39,000  Level Oakland Center
07:21PM 35.9931 -120.4158 134° Southeast 475 547 39,000  Level Oakland Center
07:22PM 35.9000 -120.2975 134° Southeast 475 547 39,000  Level Oakland Center
07:23PM 35.8061 -120.1792 134° Southeast 478 550 39,000  Level Oakland Center
07:24PM 35.7131 -120.0608 134° Southeast 477 549 39,000  Level Oakland Center
07:25PM 35.6133 -119.9481 137° Southeast 482 555 39,000  Level Oakland Center
07:26PM 35.4997 -119.8511 145° Southeast 490 564 39,000  Level Oakland Center
07:27PM 35.3861 -119.7522 145° Southeast 495 570 39,000 -900 Level Oakland Center
07:28PM 35.2511 -119.6372 145° Southeast 490 564 37,200 -2,280 Descending Los Angeles Center
07:29PM 35.1392 -119.5408 145° Southeast 491 565 34,300 -2,940 Descending Los Angeles Center
07:30PM 35.0264 -119.4453 145° Southeast 492 566 31,200 -2,760 Descending Los Angeles Center
07:32PM 34.9153 -119.3511 145° Southeast 488 562 28,700 -2,340 Descending Los Angeles Center
07:33PM 34.8078 -119.2594 145° Southeast 475 547 26,400 -2,280 Descending Los Angeles Center
07:34PM 34.7050 -119.1719 145° Southeast 455 524 24,100 -2,400 Descending Los Angeles Center
07:35PM 34.5881 -119.0767 146° Southeast 428 493 21,500 -2,340 Descending Los Angeles Center
07:36PM 34.4956 -118.9969 145° Southeast 404 465 19,300 -2,040 Descending Los Angeles Center
07:37PM 34.4042 -118.9217 146° Southeast 396 456 17,300 -2,100 Descending Los Angeles Center
07:38PM 34.3103 -118.8642 153° Southeast 377 434 15,000 -2,160 Descending Los Angeles Center
07:39PM 34.2100 -118.8281 163° South 376 433 12,900 -1,980 Descending Los Angeles Center
07:40PM 34.0967 -118.7850 163° South 358 412 11,000 -1,320 Descending Los Angeles Center
07:41PM 34.0347 -118.7217 140° Southeast 281 323 10,200 -660 Descending Los Angeles Center
07:42PM 34.0272 -118.6400 96° East 241 277 9,700 -780 Descending Los Angeles Center
07:43PM 34.0203 -118.5625 96° East 231 266 8,700 -1,080 Descending Los Angeles Center
07:44PM 34.0125 -118.4808 97° East 227 261 7,500 -1,380 Descending Los Angeles Center
07:45PM 34.0114 -118.4169 91° East 222 255 5,900 -1,620 Descending Los Angeles Center
07:46PM 34.0192 -118.3239 84° East 227 261 4,200 -1,380 Descending Los Angeles Center
07:47PM 33.9989 -118.2711 115° Southeast 209 241 3,100 -1,140 Descending Los Angeles Center
07:48PM 33.9650 -118.2997 215° Southwest 179 206 1,900 -1,020 Descending Los Angeles Center
07:49PM 33.9578 -118.3436 259° West 153 176 1,100 -720 Descending Los Angeles Center
07:50PM 33.9547 -118.3844 265° West 134 154 500 -480 Descending Los Angeles Center
07:51PM 33.9489 -118.4322 262° West 131 151 200 -300 Descending Los Angeles Center
07:53PM 33.9425 -118.4081 90° East  Level Estimated